Söndagen den 30 april 2017 (Mariana)

Blekinge Flygklubb
Eringsbodavägen 16 B
372 92 Kallinge
Org.nr. 835600-0144

Det finns inget på Anslagstavlan.

Väder ESDF

METAR
ESDF 292250Z AUTO 29003KT 9999 FEW036/// OVC068/// 03/02 Q1021

TAF
Ej tillgänglig

Förgasaris
Svår is vid alla effekter

METAR | TAF | Nordic SWC | Väderstatistik

Inhämta alltid aktuellt väder hos LFV innan du flyger.

NOTAM för kommande 24h

+ = 0-3 dgr | - = >3 dgr gammal
Endast VFR. Kontrollera alltid hos LFV.